Weather History for Cut Bank, MT

Change the Weather History Date:

Friday, September 13, 2013

  Actual Average Record
Temperature  
Mean Temperature 65 °F 55 °F  
Max Temperature 84 °F 69 °F 87 °F (1908)
Min Temperature 46 °F 41 °F 20 °F (1970)
Degree Days  
Heating Degree Days 0 11  
Month to date heating degree days 11 113  
Since 1 July heating degree days 83 307  
Cooling Degree Days 0 0  
Month to date cooling degree days 28 6  
Year to date cooling degree days 223 159  
Growing Degree Days 14 (Base 50)    
Moisture  
Dew Point 47 °F    
Average Humidity 60    
Maximum Humidity 93    
Minimum Humidity 26    
Precipitation  
Precipitation 0.00 in 0.04 in 0.81 in (1940)
Month to date precipitation 2.00 0.58  
Year to date precipitation 13.02 9.24  
Snow  
Snow 0.00 in - - ()
Snow Depth 0.00 in    
Sea Level Pressure  
Sea Level Pressure 29.86 in    
Wind  
Wind Speed 7 mph (NNW)    
Max Wind Speed 21 mph    
Max Gust Speed 24 mph    
Visibility 10 miles    
Events      
T = Trace of Precipitation, MM = Missing Value Source: NWS Daily Summary

Daily Weather History Graph

Daily Weather History Graph

Search for Another Location

Airport:

Trip Planner

Search our weather history database for the weather conditions in past years. The results will help you decide how hot, cold, wet, or windy it might be!

Date:

Astronomy

Sep. 13, 2013 Rise Set
Actual Time 7:03 AM MDT 7:45 PM MDT
Civil Twilight 6:32 AM MDT 8:17 PM MDT
Nautical Twilight 5:54 AM MDT 8:55 PM MDT
Astronomical Twilight 5:14 AM MDT 9:34 PM MDT
Moon 3:59 PM MDT (9/13) 12:15 AM MDT (9/13)
Length of Visible Light 13h 45m
Length of Day
12h 41m
Waxing Gibbous, 62% of the Moon is Illuminated
Sep 13
Waxing Gibbous
Sep 19
Full
Sep 26
Last Quarter
Oct 4
New
Oct 11
First Quarter

Hourly Weather History & Observations

Time (MDT) Temp. Dew Point Humidity Pressure Visibility Wind Dir Wind Speed Gust Speed Precip Events Conditions
12:56 AM 54.0 °F 46.0 °F 75% 29.95 in 10.0 mi Calm Calm - N/A   Clear
1:56 AM 53.1 °F 46.0 °F 77% 29.93 in 10.0 mi North 3.5 mph - N/A   Clear
2:56 AM 50.0 °F 46.0 °F 86% 29.92 in 10.0 mi West 4.6 mph - N/A   Clear
3:56 AM 50.0 °F 45.0 °F 83% 29.90 in 10.0 mi WNW 5.8 mph - N/A   Clear
4:56 AM 48.9 °F 44.1 °F 83% 29.89 in 10.0 mi Calm Calm - N/A   Clear
5:56 AM 46.9 °F 44.1 °F 90% 29.88 in 10.0 mi Calm Calm - N/A   Clear
6:56 AM 46.9 °F 44.1 °F 90% 29.88 in 10.0 mi Calm Calm - N/A   Clear
7:56 AM 51.1 °F 45.0 °F 80% 29.89 in 10.0 mi Calm Calm - N/A   Clear
8:56 AM 53.1 °F 48.9 °F 86% 29.88 in 10.0 mi Calm Calm - N/A   Clear
9:56 AM 61.0 °F 52.0 °F 72% 29.86 in 10.0 mi Calm Calm - N/A   Clear
10:56 AM 69.1 °F 51.1 °F 53% 29.84 in 10.0 mi Calm Calm - N/A   Clear
11:56 AM 75.9 °F 48.9 °F 38% 29.83 in 10.0 mi Calm Calm - N/A   Clear
12:56 PM 79.0 °F 50.0 °F 36% 29.81 in 10.0 mi North 6.9 mph - N/A   Clear
1:56 PM 82.0 °F 46.9 °F 29% 29.80 in 10.0 mi NW 12.7 mph - N/A   Clear
2:56 PM 82.9 °F 46.0 °F 27% 29.81 in 10.0 mi NNW 11.5 mph - N/A   Clear
3:56 PM 82.9 °F 45.0 °F 26% 29.79 in 10.0 mi NNW 13.8 mph - N/A   Clear
4:56 PM 82.9 °F 46.9 °F 28% 29.79 in 10.0 mi NNE 15.0 mph 19.6 mph N/A   Clear
5:56 PM 82.9 °F 46.9 °F 28% 29.80 in 10.0 mi North 18.4 mph 21.9 mph N/A   Clear
6:56 PM 78.1 °F 48.9 °F 36% 29.81 in 10.0 mi North 12.7 mph - N/A   Clear
7:56 PM 72.0 °F 50.0 °F 46% 29.82 in 10.0 mi North 8.1 mph - N/A   Clear
8:56 PM 66.9 °F 50.0 °F 54% 29.86 in 10.0 mi NNW 9.2 mph - N/A   Clear
9:56 PM 64.0 °F 50.0 °F 60% 29.86 in 10.0 mi NW 10.4 mph - N/A   Clear
10:56 PM 60.1 °F 48.9 °F 67% 29.87 in 10.0 mi NW 10.4 mph - N/A   Clear
11:56 PM 62.1 °F 48.9 °F 62% 29.86 in 10.0 mi NNW 13.8 mph - N/A   Clear